Theta_e
339 336 337 343 342 343 344 341 340 339 338 338 337 336 335 334 333 332 332 333 333 332 332 332 331 331 332 339 339 338 339 337 333 331 330 333 336 338 338 337 339 340 341 341 339 338 335 335 334 334 332 331 331 330 327 328 329 327 328 328 326 326 329 330 330 332 332 332 334 332 332 334 335 334 334 334 331 332 331 329 330 328 332 331 331
337 338 337 342 342 343 342 340 340 339 338 336 335 334 333 333 333 332 332 331 331 330 331 330 331 331 330 338 339 340 339 336 333 332 334 336 336 338 339 337 339 340 340 339 339 338 337 335 334 333 333 330 329 327 327 329 325 326 330 326 327 328 328 329 331 332 332 334 332 331 333 334 337 337 335 335 332 332 330 329 330 331 330 333 331
339 340 340 342 342 341 341 340 339 338 336 335 334 333 332 332 331 331 331 331 330 330 331 329 330 329 333 339 339 338 340 336 338 339 339 339 338 338 337 338 338 338 338 338 338 337 336 335 333 333 331 329 328 329 328 327 326 327 330 326 330 329 329 329 331 332 333 331 330 331 332 332 337 334 335 333 333 332 330 330 329 332 331 330 330
339 338 338 341 341 341 340 340 338 337 336 335 334 333 332 331 331 331 332 331 331 332 330 329 330 329 338 338 338 339 339 339 339 339 339 338 338 336 336 336 335 335 336 336 336 335 335 334 333 332 330 329 327 328 328 327 326 328 329 327 329 330 330 330 331 332 333 330 330 331 330 322 324 337 334 333 332 332 331 329 331 330 329 330 330
338 338 339 340 342 340 339 338 338 337 336 334 333 332 332 330 332 333 332 333 332 332 331 329 330 330 337 338 337 337 337 337 336 336 336 335 336 335 335 334 334 334 334 335 334 333 332 331 332 331 326 329 325 328 327 328 327 328 329 329 330 330 330 330 331 331 331 330 330 330 322 320 321 337 332 333 333 332 331 329 330 329 329 329 330
337 338 339 337 339 339 339 338 338 336 335 333 333 332 333 331 331 332 332 332 333 332 333 333 332 331 333 336 337 335 335 334 334 334 333 333 334 333 332 332 331 332 332 332 331 330 330 330 328 325 327 325 326 329 327 328 329 329 328 329 329 330 330 331 331 332 330 328 328 324 319 320 321 333 334 333 333 332 329 328 330 329 329 330 328
337 336 336 336 335 337 338 338 337 336 334 333 329 328 329 331 331 331 332 330 329 332 333 333 333 332 331 333 335 334 333 332 332 331 331 331 332 330 330 330 329 331 329 331 330 330 329 329 327 327 329 326 329 328 327 328 328 329 329 330 330 330 330 331 331 330 329 326 320 319 319 320 322 330 335 333 331 330 328 329 330 328 327 327 327
334 333 334 334 333 337 338 337 336 335 334 331 329 331 331 331 331 329 331 331 333 332 332 332 332 330 332 332 332 332 332 331 329 330 330 330 331 329 330 329 330 331 328 330 329 329 329 326 328 329 328 327 329 328 328 329 329 329 330 329 330 330 331 331 331 330 329 321 320 318 320 320 323 326 338 331 330 329 328 328 327 326 326 327 327
333 334 333 332 334 338 337 337 336 334 332 329 331 332 333 332 331 329 329 329 332 332 330 330 332 329 329 330 328 327 328 328 328 329 330 330 330 329 328 329 330 329 330 329 329 330 329 329 329 329 329 328 328 329 329 329 330 330 330 330 330 330 331 331 331 330 324 321 319 318 321 321 324 327 337 330 328 328 329 327 327 326 326 326 326
332 331 331 331 330 338 337 336 334 332 330 330 330 331 333 332 331 329 329 329 329 330 330 328 330 330 329 328 326 326 327 327 327 328 330 330 327 328 327 328 328 328 328 328 328 328 327 328 328 328 328 328 329 329 329 329 330 330 330 330 330 330 330 330 332 330 323 320 318 319 326 331 325 326 331 330 329 328 328 327 335 331 327 327 327
330 330 331 330 331 338 336 335 332 331 330 330 330 332 332 331 330 329 329 330 330 330 329 329 330 329 327 326 326 327 327 327 327 327 328 328 326 327 327 327 327 327 328 328 328 328 328 327 328 328 328 328 329 329 329 330 330 330 330 330 330 330 330 331 331 321 322 319 319 320 326 333 332 327 334 332 329 329 329 329 328 328 328 327 327
328 329 329 331 338 336 335 333 331 331 330 329 330 331 332 330 328 329 330 331 330 328 328 330 327 326 326 327 327 327 328 328 327 327 327 328 327 327 327 327 328 327 327 327 328 329 329 329 329 329 329 329 330 330 331 331 332 332 332 331 330 331 330 331 326 324 321 320 319 326 326 323 324 325 333 334 330 329 329 330 329 329 329 328 328
328 329 329 329 331 335 335 332 330 330 330 331 332 331 331 330 328 328 330 329 329 328 328 328 326 325 326 327 326 326 327 328 328 328 327 327 328 328 328 327 328 328 328 328 329 329 329 330 330 330 330 331 331 332 332 332 333 334 334 334 333 332 331 331 325 322 321 319 320 321 319 322 324 330 333 334 331 330 330 330 330 329 329 329 329
328 329 328 328 329 339 334 331 330 330 329 329 329 330 329 328 328 328 328 328 327 328 327 327 326 325 326 327 327 328 327 328 328 329 328 328 327 328 328 327 328 329 329 330 330 331 331 332 332 332 332 332 333 333 334 334 335 335 335 335 336 335 333 335 334 323 324 323 325 322 321 324 324 330 333 333 332 331 331 331 331 330 329 329 329
328 328 328 328 329 331 333 331 331 331 328 328 330 328 328 328 328 328 327 327 327 327 328 327 326 326 326 327 328 328 329 329 329 329 329 330 330 329 329 329 329 330 330 331 332 333 333 334 334 334 334 334 335 335 335 335 335 335 335 335 336 336 336 331 328 323 322 324 323 327 325 323 328 330 331 333 333 332 331 331 331 331 330 329 328
328 328 330 327 327 326 328 332 332 331 329 329 331 329 329 328 328 327 328 327 328 328 327 327 326 326 326 327 328 330 330 330 331 331 331 331 331 331 331 331 332 331 331 332 332 333 334 334 334 334 334 335 334 334 334 335 336 336 337 337 337 337 336 334 329 325 323 324 324 325 324 322 329 331 331 333 332 332 332 331 331 331 331 330 328
328 330 327 326 325 326 324 331 331 333 331 331 330 330 329 329 328 327 328 328 328 328 328 328 327 327 327 329 330 331 331 331 332 332 331 331 331 332 333 333 333 333 333 332 332 333 333 333 332 333 333 331 331 331 331 332 332 332 333 335 338 338 338 336 330 328 326 326 326 323 323 323 326 331 332 333 333 332 332 332 331 331 331 330 329
326 326 325 326 324 326 326 325 330 327 328 334 333 332 330 329 328 327 328 328 328 328 329 329 329 329 330 331 330 331 330 330 331 331 331 331 331 330 328 330 331 333 332 332 333 333 332 331 331 332 329 330 330 330 331 330 329 329 330 331 334 336 337 336 333 330 327 331 329 328 327 328 330 331 332 333 333 333 332 331 331 331 331 330 329
324 325 324 323 323 323 323 322 329 325 326 325 323 328 332 330 329 328 328 328 329 330 329 330 331 332 331 331 328 328 330 332 331 331 331 331 330 333 329 328 328 326 329 331 331 330 330 330 330 328 329 330 329 330 329 329 329 329 330 331 331 331 332 334 333 329 328 328 327 325 323 329 331 333 334 333 333 333 332 330 330 330 330 329 329
324 324 323 322 323 322 320 321 322 323 324 324 325 324 332 335 331 330 329 329 329 329 330 331 332 332 330 329 327 331 328 326 331 329 333 331 333 334 327 326 326 328 328 328 328 328 328 328 329 327 329 329 328 328 327 327 328 329 329 330 327 327 323 328 328 327 325 325 328 326 328 332 333 334 335 334 333 333 332 330 330 329 330 330 331
322 322 323 321 321 321 320 320 322 323 322 323 324 323 326 335 338 332 331 330 329 330 331 336 334 334 329 333 330 324 319 320 320 325 332 332 329 333 326 325 327 327 327 328 327 327 326 328 329 327 328 327 326 324 325 325 327 328 327 327 325 317 319 322 324 325 326 325 326 324 330 332 334 335 335 334 333 332 332 330 329 329 330 330 330
320 320 321 322 320 320 320 320 321 322 322 323 325 324 326 331 326 323 327 331 335 334 331 330 331 318 332 321 322 323 318 320 324 331 327 331 328 331 329 327 329 328 327 327 328 327 326 326 327 327 328 326 323 315 316 320 324 325 325 324 315 315 316 318 318 320 323 323 325 324 329 332 334 336 337 336 332 331 331 330 329 330 330 330 330
316 316 317 320 321 321 320 321 321 321 321 322 324 324 326 322 321 323 325 333 334 332 324 328 318 318 320 318 324 318 319 320 324 326 328 328 329 329 330 329 329 329 327 327 327 327 327 326 326 326 325 323 315 313 313 313 313 321 320 315 313 313 314 314 315 317 318 319 323 325 328 330 333 334 335 334 332 332 331 330 329 329 330 330 330
317 315 315 315 318 320 320 321 322 321 321 322 323 322 321 321 321 321 322 322 322 325 323 321 317 316 316 316 319 320 318 314 324 325 323 316 317 325 326 325 324 326 327 321 324 325 324 322 323 324 319 317 314 313 314 313 314 313 313 313 313 313 312 314 314 314 315 316 318 324 328 331 332 332 333 332 331 330 330 330 329 329 329 329 328
316 315 319 315 315 318 319 320 322 321 321 321 324 322 321 320 320 321 320 320 321 321 320 319 318 316 315 317 316 320 315 313 314 314 314 314 314 314 314 314 314 312 326 312 315 314 315 312 313 316 312 313 313 313 313 315 314 313 313 313 312 312 312 313 312 312 313 314 316 324 329 331 329 328 329 329 329 328 328 329 328 329 328 328 328
316 315 313 316 315 317 318 319 320 321 321 321 321 324 326 320 320 320 320 319 321 320 320 319 317 316 315 317 320 312 313 313 313 313 314 314 314 314 313 313 312 313 319 313 314 314 313 313 313 313 313 313 313 313 314 316 312 312 312 312 312 312 312 312 312 312 313 313 315 324 331 329 328 328 328 328 328 328 329 328 328 328 328 328 327
315 317 313 314 316 317 317 318 319 320 320 321 319 321 322 321 320 319 320 318 319 320 318 317 316 315 315 321 313 313 312 313 313 313 313 314 314 313 313 313 312 312 316 314 314 314 314 314 313 313 312 313 313 313 313 313 312 311 312 311 312 312 312 312 311 312 312 313 315 324 329 329 329 328 327 326 326 326 326 326 327 328 328 328 328
316 316 314 313 321 317 317 318 319 318 319 318 318 317 318 318 318 326 325 324 322 319 318 317 317 317 318 320 322 311 312 312 313 313 314 313 315 315 313 313 313 313 315 316 314 314 314 314 314 312 312 312 312 312 314 312 311 310 311 311 311 311 312 311 311 311 312 312 314 321 327 326 325 324 324 324 324 325 326 327 327 327 327 327 327
316 315 315 313 314 319 318 317 317 321 317 316 317 315 316 317 320 321 318 331 319 318 318 318 317 317 319 321 323 312 311 312 312 314 313 314 314 314 313 313 313 313 315 314 315 313 314 314 314 313 312 312 312 312 315 311 311 311 310 311 311 311 311 311 311 311 312 313 313 319 327 325 324 324 325 325 326 326 326 326 326 326 326 326 326
318 316 314 314 314 319 318 318 318 319 317 315 316 317 317 316 317 317 315 329 316 317 317 316 316 315 314 317 319 313 312 312 314 313 313 314 314 314 315 313 313 314 315 314 315 314 314 314 314 314 313 312 312 312 314 311 310 310 311 311 311 311 311 310 310 311 312 312 312 315 322 324 325 325 324 324 325 325 325 325 325 325 325 326 326
316 314 314 314 318 318 317 319 318 326 316 315 316 318 319 315 319 316 315 323 315 318 318 316 315 314 315 317 319 322 312 312 312 312 314 313 313 313 314 313 314 314 314 315 315 316 314 314 314 314 313 313 312 312 313 310 309 309 310 310 310 311 311 311 311 311 311 312 312 313 314 321 323 323 323 323 324 325 325 325 325 325 325 325 325
314 314 314 315 318 317 317 318 319 324 320 319 325 317 318 315 320 315 315 319 318 316 316 315 321 314 316 316 316 314 321 312 313 313 313 313 313 314 313 313 314 314 315 315 315 315 315 315 315 315 313 313 312 311 313 309 309 308 308 310 310 311 311 311 310 310 311 311 312 312 313 315 318 321 322 322 323 324 325 325 324 324 325 325 325
313 315 314 318 317 317 317 318 319 324 316 317 316 316 316 317 319 315 316 319 319 317 316 315 315 315 315 316 315 314 322 313 314 316 322 312 313 313 313 318 314 314 314 316 316 315 315 314 315 315 315 312 312 311 312 310 309 309 308 310 310 310 310 310 310 310 311 310 311 311 312 314 314 316 320 321 321 323 325 326 324 324 324 325 325
312 313 314 316 318 317 320 319 319 319 317 316 317 316 317 317 319 314 323 318 316 316 319 316 317 316 317 315 315 316 319 313 314 315 313 311 312 312 313 313 313 314 315 315 314 314 314 314 315 312 316 312 310 310 311 309 309 309 309 309 309 310 311 309 310 310 310 310 311 311 311 312 312 314 316 318 319 321 324 325 323 323 324 324 325
316 312 315 316 319 316 321 318 323 315 322 321 320 316 317 320 317 316 314 316 316 314 315 316 315 316 316 315 316 316 320 314 314 314 313 312 312 312 313 313 313 316 314 314 315 314 313 313 315 312 310 310 310 311 311 309 308 309 309 311 308 310 310 309 309 310 310 310 311 311 312 312 312 314 316 314 315 317 322 324 323 323 323 323 324
313 314 315 316 316 314 321 316 320 314 317 319 313 317 319 315 315 325 313 315 317 316 315 315 315 315 317 315 315 316 320 315 315 314 313 312 312 313 313 313 314 315 314 314 316 314 313 314 314 312 309 309 311 309 310 308 309 309 309 309 308 313 309 309 309 310 310 310 311 312 312 312 312 314 315 312 313 314 320 323 322 322 322 322 322
312 313 315 315 314 314 322 316 318 314 314 316 314 315 315 314 315 315 316 315 314 315 314 314 315 314 314 314 314 316 321 317 316 315 312 313 312 312 313 313 315 314 313 313 313 316 313 313 313 315 310 309 308 308 309 309 309 309 308 308 308 311 308 309 310 312 310 309 310 311 311 311 313 313 312 312 312 313 316 321 321 321 320 321 320
312 314 315 316 315 316 319 316 316 315 314 312 314 314 315 315 312 314 323 315 315 314 314 315 314 314 313 314 314 316 321 318 315 315 313 313 313 313 313 313 314 313 313 313 313 313 313 312 313 310 310 309 309 309 308 309 308 308 309 308 309 308 308 309 312 313 308 309 309 311 311 311 311 311 311 312 312 312 313 316 319 319 319 320 320
313 314 314 314 315 315 317 318 317 314 313 313 318 315 314 314 313 313 314 315 314 314 314 314 313 313 313 314 315 316 319 318 316 315 313 313 315 314 313 313 314 313 313 312 313 314 315 312 311 311 311 309 309 309 309 308 309 308 307 309 308 307 307 310 311 307 309 309 309 312 310 311 311 311 311 311 312 311 312 315 315 315 315 318 319
313 314 315 314 314 314 314 313 315 314 313 312 313 313 313 314 315 314 315 315 314 320 316 314 313 313 315 315 315 315 315 319 316 315 313 315 314 314 313 313 313 314 313 313 313 312 312 313 311 311 311 311 313 311 309 309 307 307 309 309 307 306 306 314 308 307 310 308 309 311 310 312 311 311 311 311 311 311 312 314 316 314 314 315 318
313 314 314 313 315 316 315 313 314 313 315 312 312 311 312 312 311 312 312 312 315 316 317 314 313 313 314 315 315 315 315 315 318 315 314 316 317 314 312 312 312 314 314 314 312 312 312 313 313 311 314 309 308 309 309 307 305 306 304 304 305 306 309 313 307 307 308 308 309 309 310 311 310 310 310 311 310 310 311 313 314 314 314 313 313
313 313 314 314 314 314 315 314 313 313 314 313 314 311 310 312 312 312 312 313 314 314 316 314 314 315 315 315 315 315 315 314 317 316 317 313 313 314 313 313 313 312 314 314 315 317 315 310 310 309 309 311 308 309 310 306 305 304 302 302 305 305 308 309 306 307 307 308 308 309 310 310 310 310 310 310 310 310 311 313 313 313 313 313 313
313 314 314 313 313 312 314 314 314 314 314 314 312 312 311 314 314 314 314 314 314 315 315 316 317 316 314 314 316 315 315 314 314 317 316 314 313 313 313 313 312 314 315 313 311 311 310 311 309 309 309 307 310 310 310 307 306 305 302 303 300 299 305 304 304 306 306 307 308 308 311 310 310 310 310 309 309 309 310 312 313 313 313 313 313
314 312 313 313 313 314 311 313 315 314 314 315 320 313 315 315 316 316 315 316 316 321 317 315 314 315 315 314 314 315 315 314 314 312 316 315 314 313 313 312 313 313 312 312 311 311 311 311 310 310 308 307 305 307 312 307 307 305 302 301 300 298 297 300 300 304 304 306 307 308 309 310 310 310 311 309 308 309 310 311 312 313 313 313 313
313 313 314 314 315 313 312 312 314 315 314 319 320 316 319 317 314 316 315 315 314 310 310 312 312 315 319 316 315 315 314 314 315 314 315 315 314 314 313 313 312 312 312 311 311 312 311 310 309 309 308 308 306 305 308 308 306 308 305 303 300 298 297 300 301 302 304 307 308 308 310 310 309 310 309 309 309 310 310 311 312 312 313 313 313
313 313 314 315 315 314 312 310 312 313 315 314 317 318 319 316 314 313 312 311 311 310 310 310 312 312 312 314 315 316 315 315 314 314 314 317 314 314 313 313 313 313 313 312 312 311 311 311 310 309 309 307 308 307 306 310 312 312 305 306 306 302 301 302 300 298 305 307 306 308 309 309 309 309 309 309 309 309 311 309 311 312 312 313 312
313 314 313 314 315 315 314 311 312 313 315 315 315 320 314 313 313 313 312 312 312 312 309 309 310 311 312 312 314 315 315 315 316 315 315 315 316 314 313 313 313 312 316 313 311 311 311 310 312 310 309 312 307 307 306 306 306 307 308 307 307 308 304 302 299 299 298 303 306 307 308 309 309 309 309 309 309 309 309 310 310 312 312 313 312
314 314 313 313 315 316 315 314 313 317 315 315 313 317 315 312 311 311 314 311 311 313 312 313 313 315 315 316 315 314 314 314 315 314 314 315 317 315 313 313 312 312 316 313 312 311 311 311 314 310 307 311 308 308 307 305 306 306 309 307 307 309 305 303 303 301 299 297 301 306 304 307 308 309 309 309 309 309 309 309 310 312 312 313 312
314 314 314 314 314 315 317 315 314 315 315 315 316 313 318 313 312 312 311 315 313 313 314 318 319 318 316 317 314 314 314 314 314 315 315 315 318 318 314 312 312 312 319 314 311 311 311 310 308 307 307 308 309 309 307 306 304 306 306 305 304 304 303 302 301 302 302 300 300 301 303 306 306 308 309 309 309 310 310 309 311 312 312 312 311
314 316 314 314 313 314 316 315 315 315 316 315 317 315 314 318 312 311 312 312 313 314 314 315 315 314 314 315 315 314 314 315 315 315 315 316 314 317 315 312 313 313 319 314 312 311 310 309 309 308 309 310 309 310 307 306 306 307 306 305 305 303 303 302 301 300 301 301 300 300 302 301 301 305 308 308 309 310 310 309 311 311 311 311 310
314 315 314 314 314 314 315 315 316 316 317 316 315 316 314 314 314 313 312 312 313 312 312 313 314 314 314 315 315 315 314 314 314 316 315 315 314 315 316 313 314 317 318 314 312 312 311 309 308 308 310 310 309 309 312 312 309 308 306 304 305 304 303 301 302 301 302 301 300 301 302 303 303 302 307 309 309 309 309 309 311 311 311 311 310
Wind_Speed
0 2 1 5 6 7 10 9 9 9 8 8 7 6 6 7 7 7 7 8 7 6 6 6 5 5 6 10 9 7 7 5 6 5 4 5 9 10 9 8 8 9 8 7 7 7 6 6 5 5 6 7 8 9 8 6 6 3 4 6 4 4 3 4 3 4 4 4 6 8 7 4 2 3 5 6 5 5 3 2 1 1 3 4 6
4 2 3 4 5 8 9 9 9 8 9 8 7 6 6 5 5 7 7 6 6 5 7 7 7 8 5 9 9 10 7 4 5 5 7 7 7 9 11 7 9 8 6 5 6 6 7 6 6 7 7 7 8 7 5 8 3 4 5 5 4 4 3 3 3 5 7 8 9 9 7 6 4 4 7 6 5 5 3 1 2 3 2 5 6
4 4 3 3 5 6 9 9 9 8 9 8 7 6 6 4 3 3 4 5 4 3 8 6 6 6 7 9 9 8 11 9 11 10 10 10 9 9 7 9 9 7 7 6 7 8 8 7 6 7 7 8 7 7 5 6 4 4 6 3 7 4 4 4 5 6 5 7 9 8 7 8 7 5 7 6 7 5 2 1 2 0 2 4 6
5 3 4 5 4 8 8 8 8 8 7 6 5 5 4 3 2 2 3 3 3 7 6 3 7 6 10 9 8 10 11 11 9 10 10 7 9 7 9 10 8 9 10 9 9 9 9 8 7 7 6 6 5 6 6 4 3 6 7 5 5 6 5 5 6 7 6 8 9 7 3 4 5 2 8 8 6 4 2 1 1 2 2 3 5
5 3 6 4 2 6 8 8 8 7 6 5 5 5 4 5 8 8 6 6 4 6 4 1 5 5 8 8 8 9 10 10 8 10 10 9 10 10 10 10 10 10 9 9 9 8 8 7 7 7 6 6 4 5 5 4 4 5 6 6 6 7 7 6 7 6 7 8 9 6 3 4 4 2 7 6 5 3 2 1 2 1 3 3 6
5 3 5 5 2 4 8 8 7 6 6 4 4 4 6 6 6 8 8 5 5 5 7 8 5 5 6 7 9 9 10 9 10 10 9 9 9 10 10 10 9 9 9 8 7 8 6 6 5 4 2 5 5 7 5 6 6 6 6 6 6 7 7 7 7 6 8 8 8 4 4 3 2 2 6 4 4 3 1 2 2 2 2 5 7
7 4 5 3 3 4 7 7 6 5 2 5 4 3 4 5 6 5 8 6 2 5 6 6 6 6 7 7 8 9 9 9 9 9 9 9 9 9 9 8 7 7 7 6 5 5 4 5 3 4 7 4 7 7 6 6 6 6 6 7 7 8 8 8 7 7 9 5 4 4 2 2 1 1 3 4 4 4 2 2 2 1 3 4 5
6 3 3 3 3 4 7 6 5 4 5 4 2 2 4 5 5 5 6 7 8 6 4 5 6 4 7 7 8 8 8 8 8 9 8 8 8 8 7 7 6 7 6 6 6 7 5 5 5 7 6 5 7 7 6 6 6 6 6 7 7 8 8 7 7 8 10 4 4 3 2 2 2 1 3 3 2 3 3 2 1 2 3 4 4
5 3 3 3 3 7 6 5 4 3 3 3 1 4 4 5 4 4 4 4 7 7 5 3 4 4 6 9 8 8 8 7 7 7 7 7 7 7 7 7 8 7 7 7 6 6 6 6 7 7 6 6 6 7 7 7 7 6 7 7 7 7 7 6 6 9 4 4 4 3 1 2 1 2 4 4 3 3 4 4 2 3 4 4 5
3 3 3 3 2 6 6 4 4 4 4 3 3 4 6 5 5 3 1 1 4 5 6 4 4 4 7 8 7 8 7 7 7 7 7 7 7 7 7 7 7 7 7 7 6 6 6 6 6 6 6 6 7 7 7 6 6 6 6 6 6 6 5 5 6 5 4 5 5 4 3 2 1 2 4 4 5 4 4 4 5 4 3 6 7
3 3 3 3 1 5 5 5 5 4 4 2 1 6 4 5 4 2 2 5 5 5 5 5 6 6 5 6 7 7 7 7 7 6 6 7 7 7 7 7 7 6 7 7 6 6 6 6 6 6 6 7 7 8 8 8 7 6 6 5 5 5 4 4 4 3 4 4 5 4 4 4 2 3 6 7 6 6 5 5 4 4 6 7 8
4 3 3 3 3 6 6 5 5 4 4 1 2 4 5 4 2 3 2 4 5 4 3 5 4 4 5 5 6 6 5 6 6 6 7 7 7 7 6 6 6 6 6 6 7 7 7 7 6 6 6 7 7 8 9 10 10 9 7 6 5 4 4 3 3 0 3 4 3 4 4 4 4 5 9 9 8 7 6 6 6 6 7 7 9
4 3 3 3 0 5 6 5 5 4 2 1 4 4 3 3 3 2 2 2 3 3 3 4 3 3 4 4 5 5 5 5 6 6 6 6 6 6 6 6 6 6 6 6 7 7 7 7 6 7 7 7 8 9 9 10 11 11 11 10 8 5 4 2 3 2 2 3 4 4 4 4 4 8 11 10 10 9 8 8 9 8 8 8 9
5 4 3 2 0 4 6 6 4 3 2 2 2 3 3 3 3 2 2 2 2 3 4 3 2 2 2 3 4 5 5 5 6 6 5 5 5 5 5 5 6 7 7 7 7 8 8 7 7 7 7 8 8 8 9 10 10 11 12 12 12 10 7 2 4 3 4 4 4 4 5 4 5 10 12 12 12 10 10 11 10 9 8 9 8
6 4 3 2 1 1 6 5 4 3 2 2 2 2 3 4 2 2 2 2 3 3 3 3 2 2 2 4 5 6 7 6 6 7 6 7 6 5 5 6 6 7 7 8 9 9 9 8 8 8 8 8 9 9 9 9 9 9 10 12 12 12 11 1 3 4 4 4 4 5 5 5 8 12 13 13 13 13 12 12 11 10 10 9 8
3 4 3 3 0 0 1 4 4 3 3 3 3 2 3 3 3 3 3 3 2 3 2 2 2 1 2 4 5 7 8 8 8 7 7 7 7 7 7 8 8 8 8 8 9 10 10 11 11 12 12 11 11 10 10 9 9 9 9 10 11 12 12 7 2 4 4 4 4 5 5 5 10 12 13 14 14 14 13 13 12 11 10 9 8
3 3 3 2 1 0 0 0 2 4 4 4 3 2 2 3 3 3 3 2 2 1 2 2 2 1 1 4 6 6 8 8 8 9 8 7 8 8 7 8 9 9 9 9 9 10 11 11 12 13 13 12 12 12 10 10 10 10 10 11 11 11 11 10 4 4 3 4 4 4 5 5 8 12 14 15 15 14 14 13 12 12 11 11 10
3 3 3 2 1 0 0 0 1 0 1 0 2 3 2 3 3 3 3 2 2 2 3 3 2 2 3 4 6 5 5 7 9 9 8 8 9 9 7 5 6 8 8 8 9 10 11 12 12 11 10 11 11 11 11 10 10 9 9 10 10 10 10 11 4 5 5 3 4 4 5 7 11 13 15 17 15 15 15 13 12 12 12 12 11
2 3 2 2 2 1 1 1 1 1 1 1 1 3 3 3 2 3 2 3 3 3 2 3 4 4 5 5 3 5 6 7 7 8 9 9 10 11 6 6 4 5 6 7 8 9 10 10 10 9 9 9 9 10 10 10 9 9 10 10 11 10 9 6 4 4 4 5 5 5 6 10 11 13 14 16 16 16 16 13 13 13 12 12 12
2 2 3 2 2 2 2 2 2 2 1 1 1 2 5 4 4 3 3 3 2 2 2 3 5 6 5 4 5 4 5 4 6 6 8 9 10 10 5 6 6 7 7 8 10 10 9 8 8 8 8 8 9 10 10 10 10 10 11 10 10 9 5 4 5 4 3 4 4 5 8 11 12 13 15 15 17 17 16 13 14 13 12 12 13
1 3 3 3 2 3 3 3 3 3 2 2 2 3 3 6 4 3 4 3 3 2 3 5 5 6 5 5 6 3 3 3 3 3 6 4 8 7 6 7 6 6 8 8 7 7 8 8 7 8 8 8 9 11 12 10 10 11 10 10 10 6 5 5 5 4 4 4 5 5 12 13 13 14 14 16 17 15 15 15 13 13 12 13 14
4 3 3 3 3 3 3 3 3 4 3 2 2 2 3 4 1 2 3 3 4 4 3 2 3 3 4 4 3 3 4 3 3 5 3 2 3 7 6 6 7 8 8 6 6 6 7 7 8 9 9 8 9 5 6 8 10 11 10 10 6 5 5 5 4 4 4 4 4 6 11 12 13 14 15 15 15 15 16 15 14 13 14 14 17
3 3 4 3 4 4 3 4 5 4 4 3 2 3 3 3 3 2 2 3 2 2 1 2 3 2 2 3 2 2 3 3 2 4 2 2 4 8 10 10 10 8 7 7 7 7 7 8 8 9 10 10 6 5 5 5 5 8 7 6 5 5 5 5 4 4 5 4 4 8 11 11 12 13 14 14 12 14 15 14 14 14 15 16 17
5 4 3 2 4 5 5 5 5 4 4 4 4 3 4 3 4 4 2 2 4 2 3 2 2 2 2 2 2 1 1 3 4 5 6 5 5 8 9 9 9 8 8 5 6 6 8 7 8 9 7 4 5 5 5 4 4 4 4 4 4 5 5 5 4 5 5 5 5 10 11 11 9 9 9 10 10 10 10 14 13 14 15 16 15
3 1 1 3 5 5 4 5 5 4 4 5 3 5 3 3 5 5 2 2 4 3 3 2 1 2 3 2 1 0 1 2 3 4 5 4 4 4 4 4 4 4 6 5 4 4 4 5 5 6 5 5 5 5 5 5 5 5 5 5 5 5 5 5 5 5 5 5 6 11 10 9 5 5 5 5 5 8 10 11 11 12 13 14 15
2 3 3 2 4 5 5 6 4 4 5 5 6 4 3 5 5 5 4 3 4 4 4 3 2 2 2 3 0 1 1 3 3 3 4 3 4 4 4 3 3 3 3 4 4 4 4 4 4 5 5 5 5 4 4 4 5 5 5 5 5 5 5 5 5 5 5 5 6 11 9 4 5 5 5 4 5 6 6 8 10 11 13 15 16
4 4 3 3 2 3 5 4 5 5 6 4 4 3 4 5 5 4 4 5 4 4 5 4 4 3 3 2 1 2 3 4 3 3 4 3 3 3 3 3 3 3 3 4 4 4 4 4 4 4 4 5 6 5 4 4 4 4 4 4 5 5 5 5 5 5 5 5 6 11 5 7 9 8 7 7 6 6 8 9 11 13 14 15 16
2 4 4 4 3 6 5 4 5 5 6 3 4 5 4 4 3 3 4 4 4 5 5 5 4 4 3 2 1 2 2 4 3 3 2 2 3 2 2 2 2 3 3 3 4 4 5 5 4 4 5 5 5 5 4 4 4 4 5 5 5 5 5 5 5 5 5 5 4 8 6 8 8 8 8 8 7 8 9 11 12 13 13 14 15
5 5 4 4 5 4 5 5 4 5 4 4 4 3 4 3 3 3 4 4 5 5 5 3 3 4 4 2 2 3 2 2 3 1 0 3 2 2 2 2 3 3 4 4 3 5 5 5 5 4 4 4 4 5 5 5 4 4 4 5 5 5 5 5 5 5 5 4 4 6 10 8 9 9 8 8 9 9 9 10 11 12 13 13 14
8 5 5 5 4 3 5 6 6 6 5 4 4 4 3 4 4 4 4 2 5 5 2 4 4 3 5 3 1 2 2 3 2 1 2 2 2 1 1 3 4 3 4 4 4 4 4 5 5 5 5 5 4 4 4 5 5 4 4 4 4 4 4 4 5 5 5 5 5 5 11 12 11 10 10 9 10 10 10 10 11 12 13 14 15
3 5 6 6 4 4 5 5 5 4 4 4 3 3 3 4 5 2 3 4 3 2 2 3 3 4 5 3 2 1 3 2 3 2 1 2 1 1 1 3 3 3 3 4 3 3 4 3 3 3 4 4 4 3 3 4 4 4 5 4 4 4 4 4 4 4 5 5 5 5 6 11 11 11 11 10 10 10 10 11 12 13 14 15 16
6 6 7 4 4 6 6 5 5 4 5 4 2 3 3 4 3 4 4 3 2 2 3 4 4 5 3 3 2 2 3 3 3 2 2 2 1 0 2 3 3 4 3 3 4 4 3 4 3 2 2 2 4 4 3 3 5 4 4 5 4 4 4 4 4 4 4 4 5 5 4 5 9 10 10 11 11 10 10 11 12 14 15 16 17
5 6 6 4 6 6 5 5 5 4 5 4 4 2 2 2 2 3 4 3 2 3 5 5 5 4 3 3 3 2 2 4 3 3 2 3 2 1 2 3 3 4 4 3 4 3 4 5 5 4 4 4 4 5 4 4 4 5 4 4 4 4 3 3 4 4 4 4 4 4 4 4 4 8 11 12 12 12 10 10 13 14 16 17 18
6 4 4 5 5 4 4 3 4 5 4 4 3 2 2 1 1 2 1 3 3 4 4 5 4 5 4 3 3 2 2 3 4 3 3 3 3 2 3 4 4 4 4 3 3 3 4 4 5 4 3 3 4 4 4 5 5 4 4 4 4 3 3 3 3 3 3 4 4 4 4 4 5 5 5 10 11 11 11 11 12 14 15 16 16
3 3 7 8 5 5 3 4 3 4 3 3 3 2 1 0 1 0 0 1 1 1 2 2 4 5 3 5 3 3 2 4 3 3 4 4 3 3 3 4 4 3 4 3 3 3 3 3 3 4 4 3 3 4 3 4 4 5 4 4 4 4 3 3 3 4 4 4 4 4 4 4 4 5 4 4 7 10 11 10 11 13 15 15 15
6 7 6 4 4 4 3 4 3 4 4 3 3 1 1 1 1 3 3 1 1 1 2 3 3 3 4 4 3 3 3 4 3 4 4 4 4 3 4 4 4 3 4 3 3 5 4 4 1 1 3 3 3 4 3 4 4 5 4 3 3 3 3 4 4 4 4 4 4 5 5 4 5 5 6 4 4 6 10 10 11 13 13 14 14
4 4 6 4 4 4 3 4 5 5 4 3 2 3 1 0 2 3 3 2 1 1 2 3 3 4 5 5 4 3 3 3 4 4 4 4 5 4 4 4 3 3 4 4 4 3 4 3 3 1 2 3 3 4 5 4 5 5 4 4 3 3 3 3 4 4 4 4 5 5 5 6 5 6 4 4 4 4 7 11 11 12 13 14 14
4 4 5 7 8 6 5 5 4 3 4 5 3 3 1 1 2 2 2 2 1 1 2 3 4 5 4 5 4 4 4 4 4 4 4 5 4 4 5 5 3 3 4 4 4 3 3 2 3 2 2 2 3 4 5 5 4 5 5 5 4 3 3 3 4 3 3 5 5 5 5 4 4 5 5 4 4 4 4 7 10 10 12 14 15
4 4 4 3 2 4 3 4 4 3 3 2 2 2 2 2 2 2 1 1 0 1 0 2 4 4 5 5 4 4 5 4 4 4 5 5 5 4 5 5 3 3 4 4 5 5 3 1 1 4 2 3 4 4 4 4 5 5 5 5 3 4 3 3 3 3 4 4 4 4 4 4 5 4 4 5 4 4 4 4 4 5 6 13 13
4 4 4 4 3 3 3 2 3 4 2 2 2 1 1 1 1 3 2 1 1 2 2 4 3 5 6 5 5 5 5 5 5 4 4 5 5 5 5 5 4 3 4 5 6 5 6 5 4 2 5 4 3 3 2 4 3 5 6 5 4 3 4 2 3 4 4 4 4 3 4 4 4 6 5 5 4 4 4 5 4 5 5 8 13
4 5 5 5 6 6 5 6 4 3 4 3 1 2 2 1 0 0 2 3 3 2 4 4 4 6 6 6 5 6 5 5 5 4 5 5 5 5 4 6 4 3 4 5 5 6 5 4 3 2 3 3 3 2 1 1 2 5 4 5 5 3 3 3 4 5 5 5 3 4 4 5 5 5 6 5 5 5 4 5 4 4 5 5 7
4 5 7 7 5 4 6 6 3 3 3 4 5 3 2 2 2 3 2 3 3 2 4 4 6 5 5 6 6 5 5 5 5 4 5 5 5 5 4 6 5 5 4 4 4 4 5 2 0 3 1 3 3 3 1 1 2 4 5 5 5 5 4 2 4 5 6 5 4 4 5 6 6 5 5 5 5 5 5 4 4 4 5 5 6
5 6 5 5 5 5 5 4 4 5 4 3 3 2 2 2 3 3 3 3 2 2 3 4 3 4 5 5 5 5 5 6 6 5 4 5 5 4 5 5 5 5 4 5 4 6 5 3 1 2 4 1 3 3 3 1 2 3 1 1 3 3 4 4 2 5 5 4 4 5 5 6 7 6 4 4 4 5 5 4 5 5 6 6 6
4 4 5 6 5 5 4 4 5 4 4 4 4 4 3 2 2 1 1 2 2 2 2 2 2 2 5 3 4 5 6 7 6 5 4 4 5 6 5 4 6 5 5 4 5 6 4 4 3 3 2 4 3 2 0 2 2 2 5 2 2 1 5 2 3 6 2 5 4 5 4 6 6 7 5 6 6 6 6 5 5 5 6 6 6
6 7 7 7 6 7 7 6 6 6 5 4 4 3 1 1 1 1 1 2 1 2 3 4 2 2 3 3 7 5 6 7 7 6 5 5 5 5 5 5 5 5 4 4 5 6 5 4 3 3 4 4 4 2 2 2 4 2 1 3 3 2 2 5 6 4 3 4 4 4 6 6 7 7 6 7 6 6 5 6 5 5 6 7 7
6 7 6 6 5 6 5 4 3 3 4 4 4 3 3 4 2 2 3 2 4 4 5 5 6 4 5 3 4 5 5 5 6 6 6 5 6 6 5 5 5 5 5 6 5 4 5 5 5 5 5 4 4 3 4 2 3 2 3 2 3 2 5 5 3 5 2 4 2 5 6 7 7 7 7 6 7 8 5 6 6 6 6 6 7
8 4 4 5 4 4 5 5 6 5 4 4 3 3 3 3 4 4 4 5 6 5 3 4 5 6 4 6 6 5 4 5 6 5 6 6 5 5 6 6 6 5 5 5 5 6 5 5 3 4 5 3 3 4 5 5 3 1 1 2 2 2 2 2 4 4 9 3 0 5 6 7 7 7 8 7 7 7 6 5 6 6 6 6 7
4 5 5 4 6 6 6 6 5 5 4 4 4 4 5 4 4 4 4 5 6 7 5 6 4 4 5 6 6 6 5 4 5 5 5 5 5 6 6 6 6 6 5 5 6 5 4 3 3 3 3 3 4 5 6 3 2 3 1 3 3 2 1 3 4 3 3 7 8 1 2 7 8 7 7 6 7 7 6 6 5 6 5 6 6
5 7 7 7 6 5 5 4 5 5 5 5 5 5 5 5 6 5 6 5 5 6 5 4 5 4 5 6 5 6 5 4 4 5 5 6 5 6 6 6 6 6 5 5 5 5 5 5 4 3 4 4 4 4 2 4 4 4 2 3 2 3 2 1 2 3 3 4 7 6 8 2 5 7 8 7 7 6 5 5 5 5 6 6 7
4 4 4 4 4 4 5 5 6 6 5 5 5 5 5 5 5 5 6 6 4 5 3 6 5 4 5 6 5 5 5 5 5 5 5 6 6 6 6 7 7 6 5 6 5 5 5 5 5 4 3 5 3 4 5 4 4 4 4 3 3 2 2 1 1 2 3 4 5 7 6 9 11 7 7 7 9 7 6 4 5 6 6 6 7
3 4 4 5 5 5 5 6 8 6 5 6 6 7 6 5 6 6 7 7 6 5 6 6 5 5 6 6 5 5 4 6 5 6 6 6 6 5 6 6 5 5 5 5 6 6 6 6 5 3 3 5 5 4 4 4 3 3 4 5 5 5 4 3 4 3 3 4 3 4 5 3 6 8 7 8 6 6 4 3 4 5 5 6 7
Wind_Direction
305 125 52 126 130 125 119 112 109 106 101 97 96 91 87 82 73 70 72 74 68 58 43 33 13 32 36 35 25 13 16 33 46 51 10 28 43 38 50 48 35 47 38 40 30 40 44 52 46 27 19 14 14 12 347 4 22 336 341 42 7 7 351 13 344 338 345 346 3 346 347 321 312 228 209 185 172 132 132 133 192 15 359 313 330
169 129 114 114 142 132 118 114 110 107 101 96 93 88 84 84 78 78 79 68 71 68 58 37 14 47 18 39 31 31 20 52 61 50 38 30 34 42 41 38 37 42 56 55 50 44 35 36 29 26 18 15 8 353 355 20 54 319 35 346 45 42 16 354 347 358 349 4 350 350 352 356 336 190 197 180 141 125 127 68 46 114 308 311 340
114 115 84 106 128 123 115 114 110 107 98 94 91 85 77 59 64 72 59 79 60 47 56 44 24 42 43 43 39 48 48 52 47 51 54 44 38 43 42 42 25 20 36 35 47 42 40 29 18 24 20 7 359 323 14 20 347 1 27 353 54 32 13 0 347 338 1 351 351 352 350 347 350 152 161 157 130 135 121 19 350 81 269 330 337
98 80 77 109 139 122 114 114 112 110 102 100 102 97 75 55 339 190 177 133 83 45 48 32 42 32 53 40 45 50 56 51 48 52 55 44 47 33 30 31 14 12 11 17 25 28 23 20 10 15 21 356 4 337 7 354 0 344 8 347 3 2 357 344 344 337 2 357 342 355 342 335 348 141 143 136 137 130 133 296 266 311 337 335 328
89 99 109 107 138 117 122 121 122 116 121 119 96 78 85 49 28 26 49 49 43 54 39 102 60 39 67 53 44 49 47 53 42 39 35 25 25 22 19 13 11 11 8 12 14 20 17 11 16 6 349 15 335 13 16 340 348 341 350 342 346 342 346 352 350 344 357 358 339 352 328 336 345 264 135 138 140 138 162 269 264 308 318 310 303
111 104 105 118 165 144 131 130 128 129 138 141 96 65 55 61 41 26 49 42 59 41 21 32 29 19 57 49 36 38 37 31 30 28 23 20 22 20 14 9 9 7 12 13 16 23 23 24 15 9 350 19 354 31 9 360 349 347 347 340 340 343 352 356 352 7 355 356 345 340 330 313 340 35 124 142 158 153 187 250 235 271 290 307 332
114 115 115 128 129 137 137 136 132 143 140 80 71 80 69 50 42 36 28 51 58 39 38 27 39 33 39 43 35 30 28 22 23 24 20 21 26 21 19 18 15 21 17 18 13 37 24 33 333 53 19 8 18 9 5 360 350 343 341 344 349 352 356 359 354 3 3 1 331 323 296 287 306 21 152 170 166 162 200 226 223 283 324 325 318
87 55 116 125 140 141 137 137 149 134 118 97 103 89 66 48 50 33 34 12 63 59 45 35 35 25 49 27 19 9 9 11 16 19 22 22 28 25 25 21 19 25 18 26 16 35 16 34 14 28 18 357 0 359 356 349 350 343 340 347 352 353 355 356 5 4 2 358 331 315 267 227 178 95 234 192 155 189 195 222 267 289 298 301 303
109 161 133 141 151 139 139 146 148 135 93 90 360 66 61 71 56 44 33 1 70 56 36 29 34 11 37 31 13 6 6 14 21 26 30 27 23 27 18 20 18 22 23 25 25 22 18 25 17 13 11 357 347 342 343 342 342 345 344 343 350 353 357 349 26 4 8 342 339 341 293 200 154 217 261 200 208 212 212 218 276 276 288 299 295
142 155 146 136 125 143 141 139 119 111 114 103 52 70 92 70 65 60 31 14 48 55 49 42 37 31 18 26 22 23 28 29 31 33 29 28 25 23 26 25 20 22 23 28 27 24 18 16 13 5 360 348 340 333 329 331 331 338 345 345 347 350 358 5 41 2 12 350 343 337 310 168 334 326 272 226 222 236 235 238 213 256 292 309 304
158 160 145 129 149 144 145 134 129 120 109 82 274 80 66 77 64 82 46 42 58 58 59 52 52 40 33 33 33 39 39 39 40 35 32 31 33 33 28 26 25 16 10 15 20 18 19 16 8 0 351 344 336 329 326 324 324 326 334 340 345 349 349 42 54 360 3 353 340 331 324 331 333 309 276 252 238 253 243 254 262 275 300 308 314
156 161 142 151 167 142 146 136 129 130 118 73 33 74 71 77 90 92 59 51 58 67 67 75 58 56 54 50 44 43 40 44 42 41 39 32 34 29 25 24 19 11 4 8 7 5 2 2 358 350 342 337 329 328 325 324 326 327 328 328 328 335 340 29 102 9 321 322 324 303 316 316 306 282 271 269 270 271 263 261 266 275 292 303 310
163 171 154 160 42 146 145 143 137 130 121 58 50 82 89 93 92 83 69 68 65 82 86 77 76 62 58 48 37 29 18 17 20 29 31 29 22 19 11 13 10 1 1 1 1 356 353 349 343 337 332 329 329 325 324 323 326 328 329 327 325 321 321 33 141 163 230 259 288 300 297 286 290 279 272 268 270 271 276 270 265 276 288 302 311
165 176 155 148 152 164 144 143 153 142 122 82 96 115 109 98 95 91 78 78 105 100 100 98 91 67 31 8 7 355 360 348 342 345 346 358 10 8 5 4 359 354 352 354 355 354 352 354 348 341 338 334 327 322 318 318 320 323 323 324 322 322 321 63 150 182 200 221 247 258 267 270 263 270 272 268 270 271 270 264 269 282 293 305 312
160 179 151 137 174 342 151 154 165 164 138 162 162 133 119 115 124 141 169 153 131 120 104 104 105 71 354 348 336 336 332 331 328 323 326 324 333 346 349 351 348 346 348 349 350 353 352 351 350 349 350 346 340 335 327 322 321 320 317 317 316 316 317 107 163 178 201 219 227 234 239 247 254 258 261 262 266 267 270 274 283 283 292 302 303
144 167 144 156 135 32 354 164 169 171 167 177 176 160 129 133 158 181 186 168 139 139 147 146 128 156 337 326 327 320 321 320 318 316 313 315 317 328 338 342 343 347 353 353 355 356 353 354 356 354 358 356 353 352 345 337 332 323 315 308 306 307 309 308 187 178 199 216 224 225 238 234 247 248 249 252 259 265 267 275 281 281 287 291 290
138 149 152 179 158 80 337 42 191 182 181 178 187 179 160 154 164 184 189 192 170 192 205 228 201 253 287 316 304 306 309 312 315 318 327 331 329 319 314 324 327 337 347 356 359 357 355 359 0 358 358 3 5 7 9 2 352 343 332 314 300 296 295 298 293 264 222 210 214 233 249 254 270 267 250 247 250 261 266 270 275 278 281 287 288
147 156 182 179 151 145 267 271 275 344 133 256 243 207 188 164 183 181 197 205 223 245 262 271 283 297 315 304 315 325 326 325 332 332 333 342 345 342 346 336 322 325 336 358 355 352 354 359 4 6 12 9 10 9 13 12 5 349 342 334 321 303 294 290 279 282 288 251 231 236 240 243 254 263 262 254 250 257 260 264 275 276 282 293 289
153 171 189 150 201 178 267 279 253 246 174 174 341 313 234 192 188 194 203 217 227 253 281 318 324 326 332 334 358 353 335 345 334 328 332 328 331 324 334 353 4 350 5 357 355 357 0 4 8 10 10 8 6 12 8 5 358 350 347 344 343 334 323 318 287 256 268 285 283 265 248 252 254 257 259 258 255 254 257 268 272 280 284 293 291
168 183 193 207 180 182 223 269 272 254 207 178 294 295 300 272 207 222 224 224 222 247 320 326 339 346 354 352 27 20 5 355 352 353 337 343 333 326 17 32 33 30 22 17 23 19 13 15 12 5 3 10 8 9 7 359 357 356 358 359 9 14 7 340 332 306 277 271 270 261 275 284 278 275 271 267 253 253 256 264 269 279 283 289 288
197 215 198 202 189 191 216 222 253 261 229 207 229 263 271 268 310 259 229 227 239 253 296 21 360 350 352 353 7 2 21 12 5 348 358 351 354 354 38 45 49 52 44 41 39 27 26 18 4 2 356 11 15 7 358 359 1 7 10 11 18 15 355 352 338 315 298 279 272 265 273 277 273 267 267 266 258 260 262 263 270 277 282 284 288
214 234 225 189 187 210 215 215 243 249 237 217 221 253 262 279 342 327 318 311 323 311 15 11 13 6 352 356 348 351 353 2 5 24 25 2 329 28 27 69 48 43 45 46 42 38 31 19 8 356 2 11 15 8 349 350 359 8 9 17 20 358 347 345 334 315 293 277 270 271 284 288 284 279 274 272 269 263 263 264 270 277 285 301 305
241 237 234 195 193 201 211 218 228 232 236 224 224 236 254 254 261 260 281 301 302 310 2 359 360 6 335 330 333 333 332 340 19 45 53 56 34 39 34 26 25 37 43 37 27 18 20 18 4 359 4 5 8 351 344 350 351 358 3 13 1 350 342 342 336 317 300 286 281 291 306 310 302 290 283 277 268 255 257 266 276 292 306 305 300
222 212 217 187 184 197 209 218 226 226 222 231 225 236 247 249 258 251 238 248 277 291 315 344 349 352 318 295 303 302 352 319 24 33 38 23 19 35 33 28 19 2 32 27 8 0 7 1 2 9 8 355 351 338 345 349 359 347 4 5 353 341 341 336 326 315 300 298 295 304 315 312 312 305 299 282 275 276 272 271 300 303 300 291 296
214 200 209 183 190 198 199 223 228 216 216 235 228 236 229 237 252 255 226 223 265 278 279 300 313 311 294 268 256 338 351 6 29 28 36 26 38 33 24 24 5 0 2 6 359 348 0 359 358 6 2 352 347 340 339 358 359 357 1 352 345 338 338 330 326 310 303 305 299 312 320 317 338 9 4 353 324 297 300 309 302 294 292 301 307
208 181 225 226 207 194 192 215 213 220 219 218 224 237 203 215 233 240 219 214 227 254 259 270 257 249 258 248 161 39 41 48 33 32 43 39 52 30 23 8 25 4 0 349 345 355 348 357 354 14 347 351 341 331 333 356 351 355 353 350 349 343 339 331 327 315 305 304 307 315 324 348 43 37 23 17 356 339 320 315 314 311 312 312 313
214 204 162 212 218 184 194 189 210 220 229 225 241 249 239 225 225 222 198 218 211 227 248 234 231 220 243 247 102 49 37 71 37 24 42 37 63 27 17 15 17 358 350 354 332 335 338 353 1 17 334 351 345 341 341 353 360 355 349 347 347 343 338 336 332 325 317 317 309 317 357 49 54 54 40 25 8 346 333 327 325 324 322 320 317
193 229 178 186 197 205 181 174 209 210 229 204 218 233 226 212 222 216 195 203 187 216 229 215 213 231 248 250 116 112 101 72 53 32 34 55 66 36 352 15 2 354 337 336 322 342 347 4 5 20 355 353 342 337 337 339 353 2 358 354 347 351 342 336 330 325 321 315 313 324 36 44 48 42 27 15 2 350 345 343 339 335 330 326 325
223 218 204 177 214 203 164 186 203 216 214 183 193 216 213 202 219 191 176 196 186 212 210 191 209 237 251 240 156 121 82 81 80 53 306 92 89 49 21 339 352 350 357 337 338 337 344 1 1 19 347 348 345 342 339 337 349 1 9 351 352 345 341 341 335 334 333 323 333 336 14 29 29 24 17 6 358 353 349 350 348 344 339 335 332
218 199 185 209 212 188 169 191 201 209 199 166 203 166 183 183 210 197 177 184 200 215 165 183 213 219 255 248 193 140 151 138 117 134 161 126 133 217 346 345 345 347 4 338 338 327 329 355 5 5 352 351 351 337 342 333 338 347 359 357 349 338 328 336 337 340 332 335 342 342 352 6 6 5 4 358 353 350 350 352 351 349 344 340 336
172 188 202 208 197 175 197 198 195 200 163 176 180 176 162 185 217 172 174 194 218 186 156 199 221 226 243 245 194 163 128 172 127 154 260 199 221 301 355 329 342 342 337 314 314 317 307 359 16 351 342 343 337 321 334 332 329 341 349 347 343 329 340 344 334 335 344 345 344 348 342 349 354 357 355 351 347 344 345 350 352 350 346 340 336
181 203 205 189 177 189 198 203 185 174 173 158 165 165 191 204 192 155 169 191 186 164 173 188 215 234 245 239 230 146 123 210 147 173 225 244 240 292 322 335 312 300 317 304 314 328 315 340 43 10 323 345 332 341 341 349 331 333 335 341 337 343 347 339 344 340 339 342 342 342 336 338 343 345 350 351 351 349 347 349 350 348 344 341 337
216 201 191 171 191 188 192 202 171 181 163 152 170 196 227 224 170 172 160 152 182 165 184 198 218 230 229 230 236 182 155 179 173 186 231 240 259 293 312 287 273 288 309 321 325 327 0 1 360 354 10 18 359 344 335 335 335 334 336 328 334 340 342 337 334 341 347 337 337 327 331 338 335 342 345 351 350 347 343 347 351 347 344 341 337
192 193 151 195 202 178 189 175 176 176 175 147 151 157 200 225 176 141 154 130 175 181 202 209 216 219 219 222 231 218 148 207 162 212 236 240 257 270 274 301 289 307 311 353 352 354 12 4 343 350 6 14 342 319 335 335 319 314 335 326 327 327 330 334 340 333 327 339 331 331 335 337 338 336 331 341 340 339 341 350 348 345 343 341 336
161 159 184 200 183 180 176 184 183 181 156 154 149 180 176 181 320 83 61 80 142 167 258 254 237 225 207 224 223 231 171 194 182 185 229 222 245 262 288 270 300 322 336 358 313 7 21 6 329 349 332 350 339 308 327 310 311 319 322 329 322 318 338 334 327 340 343 329 331 336 338 338 336 326 331 329 328 331 338 344 345 343 343 341 338
187 187 195 177 185 182 193 177 182 177 171 156 151 195 205 162 84 68 99 101 125 174 232 223 263 264 221 221 230 236 216 191 200 190 226 231 238 250 268 278 295 328 328 355 347 3 336 337 294 188 339 309 330 313 320 322 312 309 318 320 312 319 331 340 342 327 332 321 341 338 338 334 333 334 339 324 317 320 331 338 341 341 341 340 339
189 178 186 177 193 199 192 184 191 188 168 152 167 202 251 61 80 87 131 138 123 211 207 193 222 236 232 227 230 230 246 210 205 197 219 245 249 250 271 271 288 322 332 342 353 315 304 324 303 251 196 253 288 303 318 325 311 307 314 317 315 314 321 340 324 323 323 338 339 335 338 340 335 336 321 320 319 319 326 330 331 335 340 339 338
206 190 192 184 192 189 193 194 198 187 176 173 184 160 107 93 85 105 109 136 198 226 207 163 200 218 231 234 228 233 243 241 227 211 227 248 246 250 276 284 284 330 339 339 315 301 282 205 296 302 210 201 267 299 309 318 306 302 317 311 315 319 284 308 335 334 334 330 331 334 330 310 323 321 323 318 321 319 311 311 321 336 339 335 333
194 192 188 213 193 184 177 198 179 183 185 154 104 81 72 50 58 50 47 41 335 320 254 194 219 208 222 231 231 234 243 243 243 228 230 251 259 263 272 274 297 321 342 330 318 324 281 174 209 288 264 231 242 243 271 298 293 301 294 296 304 296 290 273 326 311 324 309 306 320 314 327 320 321 316 321 317 308 297 306 331 335 326 323 320
178 178 178 176 183 179 172 201 182 183 145 95 82 74 54 42 321 345 346 339 341 293 236 230 220 214 224 226 232 238 243 244 243 233 233 249 249 257 261 276 290 312 317 322 309 309 302 314 295 236 296 316 241 244 267 318 301 302 304 310 292 281 300 285 301 338 309 310 309 312 320 323 331 326 329 328 322 316 314 319 323 322 313 311 310
163 168 170 184 186 185 167 196 199 166 154 142 137 156 204 311 30 8 233 259 258 237 238 242 228 228 225 220 226 235 241 247 250 227 235 245 243 256 268 279 279 277 275 272 269 286 272 235 261 323 274 298 308 226 285 123 6 313 319 311 314 285 264 283 299 333 321 293 295 319 320 333 332 332 329 323 324 316 308 304 309 312 310 302 302
192 169 184 189 185 178 183 192 171 170 171 176 183 150 179 175 179 225 215 249 262 258 267 256 234 238 236 231 227 233 239 243 251 232 237 235 253 251 253 262 273 267 256 266 281 279 280 249 63 336 233 242 258 245 252 55 4 321 314 325 328 319 290 309 315 313 320 300 309 322 324 330 320 319 317 320 315 312 302 296 302 312 309 308 303
173 187 179 162 177 186 195 185 183 176 195 189 154 188 193 188 167 222 181 262 251 243 252 263 265 243 246 247 250 248 245 251 248 242 233 237 242 243 250 251 260 257 270 287 292 279 254 274 185 212 299 282 255 258 248 108 266 273 221 302 295 354 330 348 325 307 301 296 316 321 325 315 312 313 307 307 309 314 309 303 304 312 310 308 310
166 169 174 180 180 190 193 190 190 190 190 204 191 207 183 179 229 242 295 215 263 345 321 286 290 266 260 251 254 242 242 247 251 241 242 239 231 235 243 241 253 238 227 248 274 272 278 268 257 234 179 298 323 299 112 260 170 354 350 302 282 23 320 298 285 287 300 296 292 309 305 308 315 321 331 329 320 312 311 311 311 307 308 310 315
189 188 183 186 187 192 194 189 189 191 197 197 204 184 175 57 19 32 60 349 334 6 355 319 293 258 275 269 249 231 237 242 249 246 235 243 236 237 234 239 243 243 214 219 245 249 238 227 225 237 198 221 282 261 271 216 223 214 249 351 345 5 230 279 319 284 332 335 303 324 315 331 328 324 323 309 307 306 310 322 318 314 311 319 320
202 203 190 187 180 187 183 189 195 198 198 206 201 170 194 191 201 246 279 295 286 295 277 258 284 281 245 267 279 244 240 245 251 251 239 238 241 235 234 238 242 237 218 224 234 252 253 244 225 208 238 220 229 257 285 247 202 214 174 163 192 270 308 303 12 313 297 257 247 307 325 329 324 319 315 314 323 323 328 326 324 316 317 323 323
216 168 171 182 186 183 185 185 192 198 200 203 196 187 197 199 201 204 207 217 230 256 244 256 250 271 294 288 277 284 251 245 257 244 242 236 233 231 225 228 235 232 225 215 219 223 227 218 212 193 230 230 169 253 253 263 337 229 182 203 234 243 157 307 296 310 324 332 163 345 326 326 321 313 316 317 314 322 325 328 328 319 324 327 331
174 151 172 176 189 191 182 190 197 199 203 194 186 194 197 205 213 222 217 223 221 241 250 262 250 256 287 282 287 282 283 245 262 265 246 241 233 239 227 228 228 230 215 205 211 223 224 257 218 216 241 214 204 229 260 237 215 270 319 303 302 277 179 219 202 248 265 298 314 286 222 323 322 313 297 304 316 320 319 328 325 325 328 332 335
160 176 186 188 188 186 184 184 197 204 208 200 194 202 198 198 207 210 235 239 229 244 261 275 281 284 290 284 283 282 290 284 258 267 271 260 253 241 228 221 220 229 210 210 224 213 208 223 234 222 226 250 217 213 223 241 187 232 272 289 308 287 299 228 222 161 239 288 296 328 323 305 293 301 325 319 318 317 323 320 319 331 335 340 339
179 170 166 162 175 172 185 186 211 207 208 207 208 205 207 204 207 219 230 253 253 269 262 271 273 277 277 278 282 284 281 292 276 259 264 257 252 242 221 216 217 220 208 209 213 215 230 229 235 231 239 261 242 197 205 226 203 230 208 209 234 296 332 353 117 171 254 201 267 309 318 327 334 323 307 315 319 318 323 335 333 334 344 343 344
160 163 174 179 174 179 188 196 215 207 206 209 201 218 211 209 216 218 225 239 246 249 269 272 270 282 270 278 281 282 289 277 284 277 258 257 247 235 226 227 222 217 212 202 209 211 222 220 216 186 253 250 260 211 231 233 222 231 218 194 218 219 236 227 246 253 218 264 286 277 293 294 293 306 312 310 303 301 314 331 342 344 350 348 346